When you browse on this site, cookies collect data to enhance your experience and personalize the content and advertising you see.
Visit our Privacy Policy to learn more. By continuing to use the site, you agree to this use of cookies and data.

Hourly Weather Jalapa

Today, 27 September, Sunday

Time Temperature Precipitation Wind Pressure Humidity
00:00 +18°C° 0 mm 1 mps 641 mmHg 91%
01:00 +18°C° 0 mm 1 mps 641 mmHg 91%
02:00 +16°C° 0 mm 1 mps 640 mmHg 91%
03:00 +16°C° 0 mm 1 mps 640 mmHg 91%
04:00 +16°C° 0 mm 1 mps 640 mmHg 91%
05:00 +15°C° 0 mm 0 mps 640 mmHg 91%
06:00 +15°C° 0 mm 0 mps 640 mmHg 91%
07:00 +17°C° 0 mm 0 mps 641 mmHg 85%
08:00 +20°C° 0 mm 0 mps 642 mmHg 79%
09:00 +22°C° 0 mm 0 mps 644 mmHg 73%
10:00 +25°C° 0.5 mm 1 mps 643 mmHg 72%
11:00 +25°C° 0.5 mm 1 mps 643 mmHg 71%
12:00 +26°C° 0.5 mm 1 mps 643 mmHg 70%
13:00 +26°C° 0.4 mm 1 mps 642 mmHg 70%
14:00 +26°C° 0.4 mm 1 mps 641 mmHg 69%
15:00 +25°C° 0.4 mm 1 mps 641 mmHg 69%
16:00 +24°C° 0.3 mm 1 mps 640 mmHg 77%
17:00 +22°C° 0.3 mm 1 mps 640 mmHg 84%
18:00 +20°C° 0.3 mm 1 mps 640 mmHg 92%
19:00 +19°C° 0.1 mm 1 mps 640 mmHg 89%
20:00 +19°C° 0.1 mm 1 mps 640 mmHg 87%
21:00 +18°C° 0.1 mm 1 mps 641 mmHg 84%
22:00 +18°C° 0 mm 1 mps 640 mmHg 82%
23:00 +16°C° 0 mm 1 mps 640 mmHg 80%

Tomorrow, 28 September, Monday

Time Temperature Precipitation Wind Pressure Humidity
00:00 +16°C° 0 mm 1 mps 640 mmHg 78%
01:00 +16°C° 0 mm 1 mps 640 mmHg 79%
02:00 +16°C° 0 mm 1 mps 639 mmHg 80%
03:00 +15°C° 0 mm 1 mps 639 mmHg 82%
04:00 +15°C° 0 mm 1 mps 639 mmHg 83%
05:00 +15°C° 0 mm 1 mps 639 mmHg 84%
06:00 +15°C° 0 mm 1 mps 639 mmHg 84%
07:00 +19°C° 0 mm 1 mps 640 mmHg 80%
08:00 +21°C° 0 mm 1 mps 641 mmHg 76%
09:00 +23°C° 0 mm 1 mps 642 mmHg 72%
10:00 +24°C° 0.4 mm 1 mps 642 mmHg 72%
11:00 +25°C° 0.4 mm 1 mps 642 mmHg 72%
12:00 +26°C° 0.4 mm 1 mps 642 mmHg 72%
13:00 +26°C° 0.8 mm 1 mps 641 mmHg 73%
14:00 +25°C° 0.8 mm 1 mps 641 mmHg 73%
15:00 +25°C° 0.8 mm 1 mps 640 mmHg 74%
16:00 +23°C° 1 mm 1 mps 640 mmHg 80%
17:00 +20°C° 1 mm 0 mps 639 mmHg 85%
18:00 +18°C° 1 mm 0 mps 639 mmHg 91%
19:00 +17°C° 0.1 mm 0 mps 640 mmHg 91%
20:00 +19°C° 0.1 mm 1 mps 640 mmHg 90%
21:00 +18°C° 0.1 mm 1 mps 641 mmHg 90%
22:00 +18°C° 0.1 mm 1 mps 641 mmHg 91%
23:00 +18°C° 0.1 mm 1 mps 640 mmHg 91%

Day after tomorrow, 29 September, Tuesday

Time Temperature Precipitation Wind Pressure Humidity
00:00 +16°C° 0.1 mm 1 mps 640 mmHg 92%
01:00 +16°C° 0.2 mm 1 mps 640 mmHg 92%
02:00 +16°C° 0.2 mm 1 mps 640 mmHg 93%
03:00 +16°C° 0.2 mm 1 mps 639 mmHg 94%
04:00 +16°C° 0 mm 1 mps 640 mmHg 95%
05:00 +16°C° 0 mm 1 mps 640 mmHg 95%
06:00 +16°C° 0 mm 1 mps 640 mmHg 95%
07:00 +18°C° 0 mm 1 mps 641 mmHg 91%
08:00 +20°C° 0 mm 1 mps 642 mmHg 86%
09:00 +22°C° 0 mm 1 mps 643 mmHg 81%
10:00 +23°C° 0.3 mm 1 mps 642 mmHg 77%
11:00 +24°C° 0.3 mm 1 mps 642 mmHg 73%
12:00 +26°C° 0.3 mm 1 mps 642 mmHg 68%
13:00 +25°C° 1.2 mm 1 mps 641 mmHg 72%
14:00 +25°C° 1.2 mm 1 mps 641 mmHg 75%
15:00 +25°C° 1.2 mm 1 mps 640 mmHg 78%
16:00 +23°C° 1.9 mm 1 mps 640 mmHg 82%
17:00 +21°C° 1.9 mm 1 mps 640 mmHg 87%
18:00 +20°C° 1.9 mm 1 mps 640 mmHg 91%
19:00 +19°C° 1 mm 1 mps 640 mmHg 92%
20:00 +19°C° 1 mm 1 mps 641 mmHg 92%
21:00 +17°C° 1 mm 0 mps 642 mmHg 93%
22:00 +18°C° 0.4 mm 1 mps 641 mmHg 94%
23:00 +18°C° 0.4 mm 1 mps 641 mmHg 94%

30 September, Wednesday

Time Temperature Precipitation Wind Pressure Humidity
00:00 +18°C° 0.4 mm 1 mps 641 mmHg 94%
01:00 +18°C° 0.5 mm 1 mps 641 mmHg 95%
02:00 +18°C° 0.5 mm 1 mps 641 mmHg 95%
03:00 +18°C° 0.5 mm 1 mps 641 mmHg 96%
04:00 +16°C° 0.1 mm 1 mps 641 mmHg 96%
05:00 +16°C° 0.1 mm 1 mps 641 mmHg 97%
06:00 +16°C° 0.1 mm 1 mps 641 mmHg 97%
07:00 +18°C° 0 mm 1 mps 642 mmHg 94%
08:00 +19°C° 0 mm 2 mps 642 mmHg 91%
09:00 +20°C° 0 mm 2 mps 643 mmHg 88%
10:00 +21°C° 0.2 mm 2 mps 643 mmHg 82%
11:00 +24°C° 0.2 mm 2 mps 643 mmHg 77%
12:00 +25°C° 0.2 mm 2 mps 643 mmHg 72%
13:00 +24°C° 0.8 mm 2 mps 642 mmHg 75%
14:00 +24°C° 0.8 mm 2 mps 641 mmHg 79%
15:00 +24°C° 0.8 mm 1 mps 641 mmHg 82%
16:00 +22°C° 1.1 mm 1 mps 641 mmHg 87%
17:00 +21°C° 1.1 mm 1 mps 641 mmHg 91%
18:00 +20°C° 1.1 mm 1 mps 641 mmHg 96%
19:00 +19°C° 1.1 mm 1 mps 641 mmHg 96%
20:00 +19°C° 1.1 mm 1 mps 641 mmHg 96%
21:00 +18°C° 1.1 mm 1 mps 642 mmHg 96%
22:00 +18°C° 0.3 mm 1 mps 641 mmHg 96%
23:00 +18°C° 0.3 mm 1 mps 641 mmHg 96%

1 October, Thursday

Time Temperature Precipitation Wind Pressure Humidity
00:00 +18°C° 0.3 mm 1 mps 641 mmHg 96%
01:00 +16°C° 0 mm 1 mps 641 mmHg 96%
02:00 +16°C° 0 mm 1 mps 640 mmHg 97%
03:00 +16°C° 0 mm 1 mps 640 mmHg 97%
04:00 +16°C° 0 mm 1 mps 640 mmHg 97%
05:00 +16°C° 0 mm 1 mps 640 mmHg 98%
06:00 +16°C° 0 mm 1 mps 640 mmHg 98%
07:00 +18°C° 0 mm 1 mps 641 mmHg 94%
08:00 +18°C° 0 mm 2 mps 642 mmHg 91%
09:00 +19°C° 0 mm 2 mps 642 mmHg 87%
10:00 +21°C° 0.1 mm 2 mps 642 mmHg 82%
11:00 +23°C° 0.1 mm 2 mps 642 mmHg 76%
12:00 +25°C° 0.1 mm 2 mps 642 mmHg 71%
13:00 +24°C° 0.5 mm 2 mps 642 mmHg 75%
14:00 +24°C° 0.5 mm 2 mps 641 mmHg 78%
15:00 +24°C° 0.5 mm 2 mps 640 mmHg 82%
16:00 +21°C° 0.7 mm 2 mps 640 mmHg 87%
17:00 +21°C° 0.7 mm 1 mps 640 mmHg 92%
18:00 +19°C° 0.7 mm 1 mps 640 mmHg 96%
19:00 +19°C° 0.2 mm 1 mps 640 mmHg 97%
20:00 +18°C° 0.2 mm 1 mps 641 mmHg 97%
21:00 +18°C° 0.2 mm 1 mps 641 mmHg 97%
22:00 +16°C° 0 mm 1 mps 641 mmHg 97%
23:00 +16°C° 0 mm 1 mps 640 mmHg 98%

2 October, Friday

Time Temperature Precipitation Wind Pressure Humidity
00:00 +16°C° 0 mm 1 mps 640 mmHg 98%
01:00 +16°C° 0.1 mm 1 mps 640 mmHg 98%
02:00 +16°C° 0.1 mm 1 mps 639 mmHg 98%
03:00 +16°C° 0.1 mm 1 mps 639 mmHg 98%
04:00 +16°C° 0 mm 1 mps 639 mmHg 98%
05:00 +16°C° 0 mm 1 mps 639 mmHg 98%
06:00 +16°C° 0 mm 1 mps 639 mmHg 98%
07:00 +18°C° 0 mm 1 mps 640 mmHg 95%
08:00 +18°C° 0 mm 2 mps 641 mmHg 92%
09:00 +19°C° 0 mm 2 mps 641 mmHg 89%
10:00 +20°C° 0.3 mm 2 mps 641 mmHg 86%
11:00 +21°C° 0.3 mm 2 mps 642 mmHg 83%
12:00 +24°C° 0.3 mm 2 mps 642 mmHg 79%
13:00 +23°C° 1 mm 2 mps 641 mmHg 84%
14:00 +21°C° 1 mm 2 mps 640 mmHg 88%
15:00 +20°C° 1 mm 2 mps 639 mmHg 92%
16:00 +19°C° 0.6 mm 2 mps 639 mmHg 94%
17:00 +18°C° 0.6 mm 2 mps 639 mmHg 95%
18:00 +17°C° 0.6 mm 2 mps 639 mmHg 97%
19:00 +17°C° 0 mm 2 mps 640 mmHg 97%
20:00 +16°C° 0 mm 2 mps 640 mmHg 97%
21:00 +16°C° 0 mm 2 mps 640 mmHg 97%
22:00 +16°C° 0 mm 2 mps 640 mmHg 97%
23:00 +16°C° 0 mm 2 mps 640 mmHg 97%
Show more